When you browse on this site, cookies collect data to enhance your experience and personalize the content and advertising you see.
Visit our Privacy Policy to learn more. By continuing to use the site, you agree to this use of cookies and data.
  • In Latvia
  • List of Countries
  • For 7 days
  • Water Temperature
  • Satellite Maps
  • Weather Map
  • Weather Widgets
  • user-avatar
    Login

    Hourly Weather Babruysk

    Today, 25 June, Tuesday

    Time Temperature Precipitation Wind Pressure Humidity
    00:00 +16°C° 0 mm 2 mps 756 mmHg 88%
    01:00 +15°C° 0 mm 2 mps 757 mmHg 88%
    02:00 +15°C° 0 mm 2 mps 757 mmHg 89%
    03:00 +15°C° 0 mm 2 mps 757 mmHg 88%
    04:00 +15°C° 0 mm 2 mps 757 mmHg 87%
    05:00 +15°C° 0 mm 2 mps 757 mmHg 86%
    06:00 +17°C° 0 mm 2 mps 758 mmHg 80%
    07:00 +19°C° 0 mm 2 mps 758 mmHg 74%
    08:00 +21°C° 0 mm 2 mps 758 mmHg 69%
    09:00 +23°C° 0 mm 2 mps 758 mmHg 63%
    10:00 +24°C° 0 mm 2 mps 758 mmHg 58%
    11:00 +25°C° 0 mm 3 mps 758 mmHg 52%
    12:00 +26°C° 0 mm 2 mps 758 mmHg 50%
    13:00 +26°C° 0 mm 2 mps 758 mmHg 48%
    14:00 +27°C° 0 mm 2 mps 758 mmHg 46%
    15:00 +26°C° 0 mm 2 mps 758 mmHg 48%
    16:00 +26°C° 0 mm 2 mps 758 mmHg 51%
    17:00 +26°C° 0 mm 2 mps 757 mmHg 53%
    18:00 +24°C° 0 mm 2 mps 757 mmHg 61%
    19:00 +21°C° 0 mm 2 mps 758 mmHg 68%
    20:00 +20°C° 0 mm 2 mps 758 mmHg 76%
    21:00 +19°C° 0 mm 2 mps 758 mmHg 77%
    22:00 +18°C° 0 mm 2 mps 757 mmHg 78%
    23:00 +18°C° 0 mm 1 mps 757 mmHg 78%

    Tomorrow, 26 June, Wednesday

    Time Temperature Precipitation Wind Pressure Humidity
    00:00 +16°C° 0 mm 1 mps 757 mmHg 78%
    01:00 +16°C° 0 mm 1 mps 758 mmHg 78%
    02:00 +16°C° 0 mm 1 mps 758 mmHg 78%
    03:00 +16°C° 0 mm 1 mps 757 mmHg 79%
    04:00 +16°C° 0 mm 1 mps 757 mmHg 81%
    05:00 +16°C° 0 mm 1 mps 757 mmHg 82%
    06:00 +19°C° 0 mm 1 mps 756 mmHg 78%
    07:00 +20°C° 0 mm 1 mps 756 mmHg 74%
    08:00 +21°C° 0 mm 2 mps 756 mmHg 70%
    09:00 +24°C° 0 mm 2 mps 756 mmHg 65%
    10:00 +25°C° 0 mm 2 mps 755 mmHg 60%
    11:00 +26°C° 0 mm 3 mps 755 mmHg 54%
    12:00 +27°C° 0 mm 3 mps 755 mmHg 54%
    13:00 +27°C° 0 mm 3 mps 754 mmHg 54%
    14:00 +28°C° 0 mm 4 mps 754 mmHg 54%
    15:00 +28°C° 0 mm 4 mps 753 mmHg 57%
    16:00 +27°C° 0 mm 4 mps 752 mmHg 60%
    17:00 +27°C° 0 mm 4 mps 751 mmHg 63%
    18:00 +26°C° 0 mm 3 mps 751 mmHg 67%
    19:00 +24°C° 0 mm 3 mps 750 mmHg 72%
    20:00 +23°C° 0 mm 2 mps 750 mmHg 76%
    21:00 +21°C° 0 mm 3 mps 749 mmHg 78%
    22:00 +21°C° 0 mm 4 mps 748 mmHg 80%
    23:00 +21°C° 0 mm 4 mps 748 mmHg 82%

    Day after tomorrow, 27 June, Thursday

    Time Temperature Precipitation Wind Pressure Humidity
    00:00 +21°C° 0 mm 5 mps 747 mmHg 83%
    01:00 +21°C° 0 mm 5 mps 746 mmHg 85%
    02:00 +21°C° 0 mm 5 mps 745 mmHg 87%
    03:00 +21°C° 0.8 mm 6 mps 744 mmHg 89%
    04:00 +21°C° 0.8 mm 6 mps 743 mmHg 92%
    05:00 +21°C° 0.8 mm 6 mps 742 mmHg 95%
    06:00 +21°C° 0.4 mm 6 mps 742 mmHg 94%
    07:00 +21°C° 0.4 mm 6 mps 741 mmHg 92%
    08:00 +22°C° 0.4 mm 6 mps 741 mmHg 90%
    09:00 +21°C° 0.1 mm 6 mps 741 mmHg 89%
    10:00 +21°C° 0.1 mm 6 mps 741 mmHg 87%
    11:00 +20°C° 0.1 mm 6 mps 741 mmHg 86%
    12:00 +21°C° 0.2 mm 7 mps 741 mmHg 78%
    13:00 +22°C° 0.2 mm 7 mps 741 mmHg 70%
    14:00 +23°C° 0.2 mm 8 mps 741 mmHg 62%
    15:00 +22°C° 0 mm 7 mps 741 mmHg 65%
    16:00 +20°C° 0 mm 7 mps 741 mmHg 67%
    17:00 +19°C° 0 mm 6 mps 741 mmHg 70%
    18:00 +17°C° 0 mm 5 mps 741 mmHg 73%
    19:00 +17°C° 0 mm 5 mps 741 mmHg 76%
    20:00 +17°C° 0 mm 4 mps 741 mmHg 80%
    21:00 +15°C° 0 mm 4 mps 741 mmHg 82%
    22:00 +14°C° 0 mm 4 mps 741 mmHg 83%
    23:00 +13°C° 0 mm 4 mps 741 mmHg 85%

    28 June, Friday

    Time Temperature Precipitation Wind Pressure Humidity
    00:00 +13°C° 0 mm 5 mps 741 mmHg 85%
    01:00 +12°C° 0 mm 5 mps 741 mmHg 85%
    02:00 +12°C° 0 mm 5 mps 741 mmHg 86%
    03:00 +12°C° 0 mm 5 mps 741 mmHg 85%
    04:00 +10°C° 0 mm 5 mps 741 mmHg 84%
    05:00 +10°C° 0 mm 6 mps 741 mmHg 83%
    06:00 +11°C° 0 mm 6 mps 741 mmHg 80%
    07:00 +11°C° 0 mm 6 mps 741 mmHg 78%
    08:00 +13°C° 0 mm 6 mps 741 mmHg 75%
    09:00 +14°C° 0.2 mm 7 mps 741 mmHg 72%
    10:00 +16°C° 0.2 mm 7 mps 741 mmHg 68%
    11:00 +17°C° 0.2 mm 8 mps 741 mmHg 65%
    12:00 +18°C° 0.2 mm 8 mps 741 mmHg 60%
    13:00 +18°C° 0.2 mm 8 mps 741 mmHg 55%
    14:00 +20°C° 0.2 mm 8 mps 742 mmHg 50%
    15:00 +20°C° 0.1 mm 8 mps 742 mmHg 53%
    16:00 +18°C° 0.1 mm 7 mps 742 mmHg 55%
    17:00 +19°C° 0.1 mm 6 mps 742 mmHg 57%
    18:00 +16°C° 0.1 mm 6 mps 742 mmHg 63%
    19:00 +15°C° 0.1 mm 5 mps 742 mmHg 69%
    20:00 +14°C° 0.1 mm 4 mps 742 mmHg 75%
    21:00 +13°C° 0 mm 4 mps 742 mmHg 74%
    22:00 +12°C° 0 mm 4 mps 743 mmHg 74%
    23:00 +12°C° 0 mm 4 mps 743 mmHg 74%

    29 June, Saturday

    Time Temperature Precipitation Wind Pressure Humidity
    00:00 +11°C° 0 mm 4 mps 743 mmHg 77%
    01:00 +10°C° 0 mm 4 mps 743 mmHg 80%
    02:00 +10°C° 0 mm 4 mps 743 mmHg 82%
    03:00 +10°C° 0 mm 4 mps 743 mmHg 82%
    04:00 +10°C° 0 mm 4 mps 744 mmHg 81%
    05:00 +10°C° 0 mm 4 mps 744 mmHg 80%
    06:00 +11°C° 0.1 mm 4 mps 744 mmHg 76%
    07:00 +12°C° 0.1 mm 5 mps 744 mmHg 72%
    08:00 +13°C° 0.1 mm 6 mps 744 mmHg 68%
    09:00 +14°C° 0.2 mm 6 mps 744 mmHg 62%
    10:00 +15°C° 0.2 mm 6 mps 744 mmHg 55%
    11:00 +16°C° 0.2 mm 7 mps 745 mmHg 49%
    12:00 +16°C° 0 mm 7 mps 745 mmHg 47%
    13:00 +17°C° 0 mm 7 mps 745 mmHg 46%
    14:00 +17°C° 0 mm 7 mps 745 mmHg 45%
    15:00 +17°C° 0 mm 6 mps 745 mmHg 46%
    16:00 +17°C° 0 mm 6 mps 745 mmHg 48%
    17:00 +17°C° 0 mm 5 mps 745 mmHg 49%
    18:00 +17°C° 0 mm 4 mps 745 mmHg 55%
    19:00 +14°C° 0 mm 3 mps 745 mmHg 62%
    20:00 +14°C° 0 mm 2 mps 745 mmHg 69%
    21:00 +13°C° 0 mm 2 mps 746 mmHg 72%
    22:00 +11°C° 0 mm 3 mps 746 mmHg 76%
    23:00 +10°C° 0 mm 3 mps 746 mmHg 80%

    30 June, Sunday

    Time Temperature Precipitation Wind Pressure Humidity
    00:00 +10°C° 0 mm 3 mps 746 mmHg 81%
    01:00 +10°C° 0 mm 3 mps 746 mmHg 81%
    02:00 +10°C° 0 mm 3 mps 746 mmHg 82%
    03:00 +10°C° 0 mm 3 mps 747 mmHg 83%
    04:00 +9°C° 0 mm 3 mps 747 mmHg 85%
    05:00 +9°C° 0 mm 3 mps 747 mmHg 87%
    06:00 +11°C° 0 mm 3 mps 747 mmHg 81%
    07:00 +13°C° 0 mm 3 mps 747 mmHg 75%
    08:00 +16°C° 0 mm 3 mps 747 mmHg 68%
    09:00 +17°C° 0 mm 4 mps 748 mmHg 66%
    10:00 +18°C° 0 mm 4 mps 748 mmHg 65%
    11:00 +19°C° 0 mm 4 mps 748 mmHg 63%
    12:00 +20°C° 0.1 mm 4 mps 748 mmHg 61%
    13:00 +21°C° 0.1 mm 4 mps 748 mmHg 59%
    14:00 +21°C° 0.1 mm 4 mps 748 mmHg 57%
    15:00 +21°C° 0.1 mm 3 mps 747 mmHg 62%
    16:00 +21°C° 0.1 mm 3 mps 747 mmHg 67%
    17:00 +20°C° 0.1 mm 3 mps 747 mmHg 71%
    18:00 +19°C° 0 mm 2 mps 747 mmHg 76%
    19:00 +18°C° 0 mm 2 mps 747 mmHg 80%
    20:00 +18°C° 0 mm 1 mps 747 mmHg 85%
    21:00 +17°C° 0 mm 2 mps 747 mmHg 87%
    22:00 +16°C° 0 mm 2 mps 748 mmHg 89%
    23:00 +16°C° 0 mm 2 mps 748 mmHg 92%
    Show more